period_start,C,m1,H,J0,J1,J2,J3,J4,J5,JA,JB,JC,JD,JJ,JK,JN,#
2015-03-29 00:03:54,0.04,1.04,0.00,24.33,27.68,30.56,4.82,26.62,1014.66,2031.44,3037.63,3011.67,3260.29,350.37,345.94,8.41,0000 0000 0000 0000 000000
2015-03-29 00:08:55,0.07,1.04,0.00,24.49,27.70,30.61,4.73,26.61,1014.66,2031.17,3036.50,3010.70,3259.13,350.63,345.70,8.44,0000 0000 0000 0000 000000
2015-03-29 00:13:56,0.07,1.04,0.00,23.98,27.71,30.63,4.77,26.69,1014.61,2031.05,3035.38,3009.82,3258.02,349.85,345.64,8.47,0000 0000 0000 0000 000000
2015-03-29 00:18:57,0.10,1.04,0.00,23.45,27.72,30.34,4.77,26.64,1014.37,2031.05,3034.04,3008.98,3257.04,350.41,346.87,8.50,0000 0000 0000 0000 000000
2015-03-29 00:23:59,0.11,1.05,0.00,23.88,27.71,30.04,4.75,26.73,1014.20,2031.05,3032.75,3008.09,3256.06,349.65,345.64,8.53,0000 0000 0000 0000 000000
2015-03-29 00:29:00,0.11,1.05,0.00,23.88,27.70,29.99,4.73,26.73,1014.18,2031.08,3031.61,3007.27,3255.05,350.28,346.13,8.56,0000 0000 0000 0000 000000
2015-03-29 00:34:01,0.09,1.05,0.00,23.83,27.69,30.12,4.80,26.63,1014.18,2031.08,3030.34,3006.59,3254.07,350.57,346.52,8.59,0000 0000 0000 0000 000000
2015-03-29 00:39:02,0.09,1.06,0.00,23.90,27.67,30.18,4.74,26.59,1014.18,2031.07,3029.30,3005.82,3253.10,349.76,345.61,8.62,0000 0000 0000 0000 000000
2015-03-29 00:44:04,0.10,1.06,0.00,24.01,27.67,30.28,4.71,26.68,1014.18,2031.08,3028.00,3004.91,3252.11,349.58,345.41,8.64,0000 0000 0000 0000 000000
2015-03-29 00:49:05,0.11,1.06,0.00,24.13,27.65,30.37,4.72,26.69,1014.15,2031.04,3026.58,3004.01,3251.09,349.96,345.58,8.67,0000 0000 0000 0000 000000
2015-03-29 00:54:06,0.10,1.07,0.00,24.23,27.65,30.43,4.72,26.59,1014.11,2031.04,3025.30,3003.09,3250.06,349.46,344.87,8.70,0000 0000 0000 0000 000000
2015-03-29 00:59:07,0.13,1.07,0.00,24.37,27.67,30.49,4.71,26.75,1013.96,2031.03,3023.87,3002.13,3248.91,349.37,344.56,8.73,0000 0000 0000 0000 000000
2015-03-29 01:04:08,0.11,1.07,0.00,24.36,27.67,30.54,4.76,26.68,1013.74,2031.01,3022.54,3001.12,3247.89,349.96,345.14,8.76,0000 0000 0000 0000 000000
2015-03-29 01:09:09,0.12,1.08,0.00,23.63,27.67,30.53,4.74,26.74,1013.71,2031.00,3021.10,3000.15,3246.77,350.12,346.07,8.79,0000 0000 0000 0000 000000
2015-03-29 01:14:11,0.11,1.08,0.00,23.24,27.67,30.17,4.80,26.72,1013.71,2031.01,3019.72,2999.35,3245.83,350.47,346.92,8.82,0000 0000 0000 0000 000000
2015-03-29 01:19:12,0.09,1.08,0.00,23.49,27.65,29.81,4.75,26.69,1013.69,2031.03,3018.47,2998.63,3244.99,349.94,346.06,8.85,0000 0000 0000 0000 000000
2015-03-29 01:24:14,0.12,1.09,0.00,23.76,27.62,29.70,4.76,26.81,1013.69,2031.21,3017.24,2997.90,3244.10,349.60,345.33,8.88,0000 0000 0000 0000 000000
2015-03-29 01:29:15,0.19,1.09,0.00,23.78,27.59,29.70,4.76,26.75,1013.69,2031.80,3016.04,2997.08,3243.36,349.99,345.84,8.91,0000 0000 0000 0000 000000
2015-03-29 01:34:16,0.14,1.10,0.00,23.87,27.56,29.84,4.75,26.77,1013.64,2031.95,3014.72,2996.27,3242.49,350.09,345.75,8.94,0000 0000 0000 0000 000000
2015-03-29 01:39:18,0.11,1.10,0.00,23.97,27.54,30.00,4.74,26.71,1013.56,2031.97,3013.29,2995.38,3241.46,349.86,345.44,8.97,0000 0000 0000 0000 000000
2015-03-29 01:44:19,0.11,1.10,0.00,24.01,27.52,30.12,4.73,26.58,1013.31,2031.99,3011.94,2994.42,3240.39,349.92,345.43,9.00,0000 0000 0000 0000 000000
2015-03-29 01:49:21,0.11,1.11,0.00,24.12,27.50,30.18,4.79,26.72,1013.23,2031.97,3010.61,2993.50,3239.37,350.49,345.65,9.03,0000 0000 0000 0000 000000
2015-03-29 01:54:22,0.12,1.11,0.00,24.17,27.50,30.21,4.72,26.68,1013.20,2031.98,3009.18,2992.55,3238.29,350.16,345.32,9.05,0000 0000 0000 0000 000000
2015-03-29 01:59:23,0.13,1.11,0.00,24.27,27.51,30.30,4.76,26.79,1013.20,2031.95,3007.68,2991.46,3237.13,350.17,345.16,9.08,0000 0000 0000 0000 000000
2015-03-29 02:04:24,0.11,1.12,0.00,24.48,27.52,30.33,4.70,26.63,1013.20,2031.96,3006.53,2990.50,3235.93,350.19,345.16,9.11,0000 0000 0000 0000 000000
2015-03-29 02:09:26,0.11,1.12,0.00,24.64,27.54,30.35,4.77,26.73,1013.19,2031.91,3005.03,2989.43,3234.83,349.63,344.06,9.14,0000 0000 0000 0000 000000
2015-03-29 02:14:27,0.12,1.13,0.00,24.00,27.56,30.48,4.72,26.75,1013.18,2031.78,3003.50,2988.36,3233.61,349.49,344.85,9.17,0000 0000 0000 0000 000000
2015-03-29 02:19:28,0.13,1.13,0.00,23.46,27.57,30.47,4.80,26.72,1013.16,2031.82,3001.91,2987.45,3232.61,350.34,346.33,9.20,0000 0000 0000 0000 000000
2015-03-29 02:24:30,0.11,1.13,0.00,23.43,27.56,30.05,4.77,26.74,1013.09,2031.88,3000.56,2986.47,3231.54,349.55,345.58,9.23,0000 0000 0000 0000 000000
2015-03-29 02:29:31,0.12,1.14,0.00,23.86,27.55,29.84,4.75,26.89,1012.83,2031.94,2999.27,2985.66,3230.49,350.23,345.67,9.26,0000 0000 0000 0000 000000
2015-03-29 02:34:32,0.09,1.14,0.00,23.80,27.52,29.92,4.74,26.83,1012.77,2031.98,2998.03,2984.85,3229.62,350.02,345.32,9.29,0000 0000 0000 0000 000000
2015-03-29 02:39:33,0.10,1.14,0.00,23.95,27.50,30.01,4.71,26.83,1012.77,2031.99,2996.79,2984.00,3228.71,349.55,344.70,9.32,0000 0000 0000 0000 000000
2015-03-29 02:44:34,0.12,1.15,0.00,23.97,27.49,30.09,4.75,26.73,1012.72,2031.99,2995.47,2983.11,3227.68,349.97,345.06,9.35,0000 0000 0000 0000 000000
2015-03-29 02:49:36,0.12,1.15,0.00,24.08,27.47,30.17,4.77,26.66,1012.71,2031.99,2993.88,2982.13,3226.61,350.31,345.34,9.38,0000 0000 0000 0000 000000
2015-03-29 02:54:37,0.12,1.15,0.00,24.17,27.47,30.18,4.69,26.68,1012.71,2031.99,2992.53,2981.20,3225.60,349.30,344.30,9.41,0000 0000 0000 0000 000000
2015-03-29 02:59:38,0.13,1.16,0.00,24.28,27.47,30.23,4.72,26.77,1012.71,2031.99,2990.87,2980.12,3224.36,349.21,344.02,9.44,0000 0000 0000 0000 000000
2015-03-29 03:04:40,0.11,1.16,0.00,24.39,27.49,30.29,4.70,26.78,1012.71,2031.99,2989.64,2979.15,3223.31,349.97,344.74,9.46,0000 0000 0000 0000 000000
2015-03-29 03:09:41,0.11,1.17,0.00,24.57,27.51,30.25,4.72,26.68,1012.71,2031.99,2988.31,2978.08,3222.13,349.83,344.44,9.49,0000 0000 0000 0000 000000
2015-03-29 03:14:42,0.13,1.17,0.00,24.70,27.53,30.27,4.69,26.77,1012.71,2031.97,2986.82,2977.03,3220.94,349.73,344.11,9.52,0000 0000 0000 0000 000000
2015-03-29 03:19:43,0.13,1.17,0.00,24.01,27.55,30.49,4.76,26.73,1012.71,2031.97,2985.24,2975.99,3219.80,350.35,345.46,9.55,0000 0000 0000 0000 000000
2015-03-29 03:24:45,0.14,1.18,0.00,23.53,27.57,30.49,4.73,26.82,1012.67,2031.96,2983.60,2974.97,3218.73,349.79,345.55,9.58,0000 0000 0000 0000 000000
2015-03-29 03:29:46,0.11,1.18,0.00,23.53,27.57,30.17,4.80,26.73,1012.68,2031.99,2982.05,2974.04,3217.76,350.14,345.78,9.61,0000 0000 0000 0000 000000
2015-03-29 03:34:47,0.11,1.18,0.00,23.86,27.55,29.92,4.77,26.71,1012.41,2031.99,2980.77,2973.19,3216.78,350.76,345.90,9.64,0000 0000 0000 0000 000000
2015-03-29 03:39:48,0.10,1.19,0.00,23.78,27.54,29.99,4.73,26.72,1012.23,2031.99,2979.64,2972.38,3215.84,349.93,345.15,9.67,0000 0000 0000 0000 000000
2015-03-29 03:44:49,0.10,1.19,0.00,23.88,27.52,30.06,4.71,26.82,1012.23,2031.99,2978.56,2971.58,3214.86,349.84,344.86,9.70,0000 0000 0000 0000 000000
2015-03-29 03:49:51,0.10,1.19,0.00,24.02,27.51,30.13,4.73,26.70,1012.22,2031.99,2977.39,2970.70,3213.86,349.66,344.59,9.73,0000 0000 0000 0000 000000
2015-03-29 03:54:52,0.10,1.20,0.00,24.11,27.50,30.18,4.74,26.81,1012.22,2031.99,2976.16,2969.79,3212.90,349.65,344.57,9.76,0000 0000 0000 0000 000000
2015-03-29 03:59:54,0.14,1.20,0.00,24.27,27.50,30.23,4.85,26.96,1012.21,2031.99,2974.66,2968.82,3211.78,350.51,345.38,9.79,0000 0000 0000 0000 000000
2015-03-29 04:04:55,0.09,1.20,0.00,24.40,27.52,30.28,4.67,26.66,1012.22,2031.99,2973.47,2967.95,3210.78,350.30,344.58,9.82,0000 0000 0000 0000 000000
2015-03-29 04:09:56,0.12,1.21,0.00,24.65,27.53,30.23,4.62,26.71,1012.22,2031.99,2972.06,2966.95,3209.64,349.11,343.39,9.85,0000 0000 0000 0000 000000
2015-03-29 04:14:58,0.13,1.21,0.00,24.30,27.55,30.40,4.79,26.52,1012.22,2031.99,2970.66,2965.94,3208.59,350.83,345.48,9.87,0000 0000 0000 0000 000000
2015-03-29 04:19:59,0.11,1.21,0.00,24.20,27.57,30.41,4.74,26.68,1012.02,2031.98,2969.28,2964.97,3207.56,349.75,344.59,9.90,0000 0000 0000 0000 000000
2015-03-29 04:25:00,0.11,1.22,0.00,24.47,27.57,30.47,4.76,26.68,1011.75,2031.98,2967.94,2964.02,3206.46,350.25,344.59,9.93,0000 0000 0000 0000 000000
2015-03-29 04:30:02,0.11,1.22,0.00,24.56,27.58,30.47,4.73,26.87,1011.73,2031.98,2966.69,2963.09,3205.40,350.48,344.56,9.96,0000 0000 0000 0000 000000
2015-03-29 04:35:03,0.11,1.22,0.00,24.66,27.60,30.45,4.66,26.66,1011.73,2031.97,2965.45,2962.11,3204.34,349.58,343.68,9.99,0000 0000 0000 0000 000000
2015-03-29 04:40:04,0.12,1.23,0.00,24.67,27.60,30.45,4.77,26.70,1011.73,2031.97,2964.06,2961.15,3203.25,350.92,345.16,10.02,0000 0000 0000 0000 000000
2015-03-29 04:45:05,0.13,1.23,0.00,24.74,27.62,30.45,4.78,26.63,1011.73,2031.95,2962.49,2960.05,3202.02,350.55,344.72,10.05,0000 0000 0000 0000 000000
2015-03-29 04:50:06,0.11,1.24,0.00,24.66,27.62,30.48,4.65,26.73,1011.71,2031.85,2960.88,2958.97,3200.83,349.99,343.98,10.08,0000 0000 0000 0000 000000
2015-03-29 04:55:07,0.13,1.24,0.00,24.61,27.62,30.49,4.70,26.79,1011.51,2031.84,2959.43,2957.94,3199.67,349.62,343.59,10.11,0000 0000 0000 0000 000000
2015-03-29 05:00:09,0.10,1.24,0.00,24.67,27.64,30.46,4.76,26.83,1011.26,2031.57,2957.80,2956.78,3198.57,350.44,344.34,10.14,0000 0000 0000 0000 000000
2015-03-29 05:05:10,0.09,1.24,0.00,24.68,27.65,30.42,4.70,26.93,1011.29,2031.39,2956.33,2955.75,3197.44,349.82,343.81,10.17,0000 0000 0000 0000 000000
2015-03-29 05:10:12,0.11,1.25,0.00,24.78,27.66,30.34,4.67,26.74,1011.42,2031.27,2954.78,2954.66,3196.31,349.42,343.27,10.20,0000 0000 0000 0000 000000
2015-03-29 05:15:13,0.12,1.25,0.00,24.80,27.67,30.47,4.73,26.74,1011.43,2031.26,2953.45,2953.68,3195.23,350.69,344.39,10.23,0000 0000 0000 0000 000000
2015-03-29 05:20:14,0.12,1.26,0.00,24.70,27.67,30.43,4.66,26.74,1011.27,2031.12,2951.93,2952.63,3194.00,349.58,343.49,10.26,0000 0000 0000 0000 000000
2015-03-29 05:25:15,0.12,1.26,0.00,24.70,27.69,30.38,4.68,26.87,1011.25,2031.09,2950.43,2951.59,3192.86,349.36,343.44,10.28,0000 0000 0000 0000 000000
2015-03-29 05:30:16,0.12,1.26,0.00,24.73,27.70,30.35,4.66,26.86,1011.25,2031.03,2948.92,2950.52,3191.72,349.71,343.56,10.31,0000 0000 0000 0000 000000
2015-03-29 05:35:18,0.13,1.27,0.00,24.79,27.71,30.34,4.71,26.73,1011.25,2031.03,2947.43,2949.47,3190.53,350.80,344.55,10.34,0000 0000 0000 0000 000000
2015-03-29 05:40:19,0.13,1.27,0.00,24.77,27.72,30.38,4.71,26.77,1011.26,2031.03,2945.90,2948.39,3189.38,350.03,343.69,10.37,0000 0000 0000 0000 000000
2015-03-29 05:45:20,0.12,1.27,0.00,24.88,27.72,30.47,4.67,26.79,1011.27,2031.02,2944.56,2947.41,3188.29,349.43,343.00,10.40,0000 0000 0000 0000 000000
2015-03-29 05:50:21,0.11,1.28,0.00,24.79,27.74,30.51,4.62,26.57,1011.27,2031.01,2943.28,2946.42,3187.20,349.66,343.33,10.43,0000 0000 0000 0000 000000
2015-03-29 05:55:22,0.14,1.28,0.00,24.87,27.75,30.50,4.73,26.82,1011.25,2031.01,2941.69,2945.35,3186.05,350.36,344.13,10.46,0000 0000 0000 0000 000000
2015-03-29 06:00:23,0.11,1.29,0.00,24.82,27.75,30.42,4.73,26.82,1011.25,2031.01,2940.19,2944.22,3184.96,349.65,343.49,10.49,0000 0000 0000 0000 000000
2015-03-29 06:05:24,0.12,1.29,0.00,24.89,27.75,30.46,4.72,26.74,1011.25,2031.02,2938.88,2943.51,3183.93,350.32,343.70,10.52,0000 0000 0000 0000 000000
2015-03-29 06:10:25,0.13,1.29,0.00,24.91,27.76,30.49,4.72,26.81,1011.25,2031.01,2937.39,2942.42,3182.84,349.78,343.35,10.55,0000 0000 0000 0000 000000
2015-03-29 06:15:26,0.13,1.30,0.00,24.90,27.77,30.53,4.72,26.72,1011.25,2031.00,2935.91,2941.43,3181.68,350.35,343.95,10.58,0000 0000 0000 0000 000000
2015-03-29 06:20:27,0.12,1.30,0.00,24.85,27.77,30.52,4.68,26.63,1011.24,2031.01,2934.50,2940.46,3180.65,349.90,343.59,10.61,0000 0000 0000 0000 000000
2015-03-29 06:25:29,0.11,1.30,0.00,24.96,27.77,30.52,4.71,26.63,1011.24,2031.02,2933.21,2939.58,3179.65,350.13,343.58,10.64,0000 0000 0000 0000 000000
2015-03-29 06:30:30,0.12,1.31,0.00,24.89,27.77,30.54,4.69,26.73,1011.24,2031.04,2931.78,2938.67,3178.64,349.77,343.45,10.67,0000 0000 0000 0000 000000
2015-03-29 06:35:31,0.13,1.31,0.00,24.86,27.77,30.52,4.67,26.77,1011.16,2031.04,2930.28,2937.59,3177.55,349.58,343.25,10.70,0000 0000 0000 0000 000000
2015-03-29 06:40:33,0.13,1.32,0.00,24.93,27.77,30.54,4.71,26.72,1010.84,2031.14,2928.83,2936.68,3176.55,349.14,342.71,10.72,0000 0000 0000 0000 000000
2015-03-29 06:45:34,0.12,1.32,0.00,24.94,27.77,30.51,4.74,26.74,1010.76,2031.17,2927.62,2935.76,3175.51,350.37,343.71,10.75,0000 0000 0000 0000 000000
2015-03-29 06:50:36,0.11,1.32,0.00,24.97,27.77,30.48,4.67,26.70,1010.76,2031.15,2926.30,2934.81,3174.46,350.31,343.40,10.78,0000 0000 0000 0000 000000
2015-03-29 06:55:36,0.08,1.33,0.00,25.01,27.77,30.48,4.72,26.74,1010.76,2031.04,2925.09,2933.88,3173.38,350.24,343.58,10.81,0000 0000 0000 0000 000000
2015-03-29 07:00:38,0.12,1.33,0.00,25.03,27.76,30.41,4.70,26.67,1010.61,2031.01,2923.73,2932.90,3172.22,350.71,343.97,10.84,0000 0000 0000 0000 000000
2015-03-29 07:05:39,0.11,1.33,0.00,25.02,27.75,30.48,4.73,26.68,1010.33,2031.03,2922.44,2931.99,3171.24,350.07,343.53,10.87,0000 0000 0000 0000 000000
2015-03-29 07:10:41,0.10,1.34,0.00,25.04,27.75,30.47,4.66,26.72,1010.28,2031.01,2921.36,2931.09,3170.25,350.01,343.03,10.90,0000 0000 0000 0000 000000
2015-03-29 07:15:42,0.11,1.34,0.00,25.03,27.75,30.46,4.69,26.65,1010.27,2031.02,2920.20,2930.19,3169.24,349.83,343.02,10.93,0000 0000 0000 0000 000000
2015-03-29 07:20:43,0.11,1.34,0.00,24.97,27.74,30.48,4.66,26.73,1010.24,2031.02,2918.97,2929.40,3168.26,349.57,342.67,10.96,0000 0000 0000 0000 000000
2015-03-29 07:25:44,0.12,1.35,0.00,24.97,27.72,30.46,4.70,26.67,1010.25,2031.02,2917.65,2928.43,3167.27,350.21,343.54,10.99,0000 0000 0000 0000 000000
2015-03-29 07:30:46,0.12,1.35,0.00,25.05,27.72,30.41,4.69,26.63,1010.26,2031.01,2916.21,2927.53,3166.15,349.17,342.36,11.02,0000 0000 0000 0000 000000
2015-03-29 07:35:47,0.12,1.35,0.00,25.06,27.71,30.40,4.73,26.67,1010.05,2031.04,2914.79,2926.60,3165.15,350.38,343.43,11.05,0000 0000 0000 0000 000000
2015-03-29 07:40:49,0.11,1.36,0.00,25.06,27.70,30.39,4.67,26.78,1009.96,2031.02,2913.55,2925.65,3164.13,350.30,343.26,11.08,0000 0000 0000 0000 000000
2015-03-29 07:45:50,0.10,1.36,0.00,25.01,27.70,30.38,4.74,26.65,1009.90,2031.03,2912.24,2924.78,3163.09,350.65,343.63,11.10,0000 0000 0000 0000 000000
2015-03-29 07:50:52,0.11,1.36,0.00,25.05,27.67,30.40,4.72,26.60,1009.81,2031.03,2910.93,2923.90,3162.14,350.29,343.31,11.13,0000 0000 0000 0000 000000
2015-03-29 07:55:53,0.12,1.37,0.00,25.09,27.67,30.37,4.71,26.75,1009.79,2031.05,2909.60,2922.97,3161.09,350.46,343.44,11.16,0000 0000 0000 0000 000000
2015-03-29 08:00:54,0.10,1.37,0.00,25.09,27.66,30.31,4.64,26.72,1009.78,2031.02,2908.19,2922.04,3160.08,350.44,343.30,11.19,0000 0000 0000 0000 000000
2015-03-29 08:05:55,0.12,1.37,0.00,25.09,27.65,30.28,4.69,26.57,1009.78,2031.04,2907.02,2921.15,3159.13,350.26,343.12,11.22,0000 0000 0000 0000 000000
2015-03-29 08:10:56,0.13,1.38,0.00,25.02,27.63,30.21,4.73,26.65,1009.77,2031.09,2905.82,2920.28,3158.17,350.29,343.29,11.25,0000 0000 0000 0000 000000
2015-03-29 08:15:58,0.14,1.38,0.00,24.97,27.62,30.28,4.67,26.60,1009.78,2031.23,2904.59,2919.52,3157.26,349.71,342.78,11.28,0000 0000 0000 0000 000000
2015-03-29 08:20:59,0.15,1.39,0.00,25.00,27.60,30.29,4.76,26.74,1009.77,2031.58,2903.48,2918.78,3156.39,349.87,342.90,11.31,0000 0000 0000 0000 000000
2015-03-29 08:26:01,0.12,1.39,0.00,24.96,27.59,30.21,4.67,26.58,1009.64,2031.70,2902.16,2917.95,3155.45,349.38,342.43,11.34,0000 0000 0000 0000 000000
2015-03-29 08:31:03,0.12,1.39,0.00,25.06,27.57,30.23,4.71,26.68,1009.37,2031.78,2900.81,2917.06,3154.48,350.00,342.92,11.37,0000 0000 0000 0000 000000
2015-03-29 08:36:04,0.14,1.40,0.00,25.03,27.56,30.25,4.69,26.56,1009.34,2031.93,2899.64,2916.22,3153.60,349.99,342.81,11.40,0000 0000 0000 0000 000000
2015-03-29 08:41:05,0.11,1.40,0.00,24.99,27.55,30.24,4.76,26.53,1009.48,2031.90,2898.22,2915.25,3152.49,350.09,343.07,11.43,0000 0000 0000 0000 000000
2015-03-29 08:46:06,0.14,1.40,0.00,25.00,27.55,30.24,4.70,26.46,1009.42,2031.95,2896.75,2914.35,3151.57,350.11,343.02,11.46,0000 0000 0000 0000 000000
2015-03-29 08:51:08,0.12,1.41,0.00,25.07,27.52,30.22,4.72,26.48,1009.49,2031.95,2895.26,2913.37,3150.53,350.35,343.19,11.49,0000 0000 0000 0000 000000
2015-03-29 08:56:09,0.13,1.41,0.00,25.05,27.52,30.21,4.71,26.65,1009.39,2031.98,2893.74,2912.45,3149.54,350.19,342.94,11.52,0000 0000 0000 0000 000000
2015-03-29 09:01:10,0.11,1.42,0.00,25.07,27.51,30.23,4.65,26.52,1009.36,2031.98,2892.28,2911.55,3148.55,349.53,342.35,11.54,0000 0000 0000 0000 000000
2015-03-29 09:06:12,0.12,1.42,0.00,24.95,27.50,30.18,4.67,26.55,1009.31,2031.99,2890.97,2910.66,3147.66,349.66,342.46,11.57,0000 0000 0000 0000 000000
2015-03-29 09:11:13,0.08,1.42,0.00,24.97,27.49,30.20,4.70,26.52,1009.29,2031.99,2889.83,2909.89,3146.79,350.00,342.70,11.60,0000 0000 0000 0000 000000
2015-03-29 09:16:15,0.11,1.43,0.00,25.02,27.47,30.20,4.71,26.64,1009.29,2031.99,2888.65,2909.01,3145.82,349.86,342.84,11.63,0000 0000 0000 0000 000000
2015-03-29 09:21:16,0.11,1.43,0.00,25.06,27.47,30.19,4.61,26.53,1009.29,2031.99,2887.38,2908.09,3144.82,349.12,341.94,11.66,0000 0000 0000 0000 000000
2015-03-29 09:26:17,0.11,1.43,0.00,25.08,27.47,30.19,4.73,26.59,1009.29,2031.99,2886.05,2907.18,3143.86,350.07,342.83,11.69,0000 0000 0000 0000 000000
2015-03-29 09:31:19,0.13,1.44,0.00,25.05,27.47,30.17,4.73,26.60,1009.29,2031.99,2884.64,2906.28,3142.88,349.67,342.49,11.72,0000 0000 0000 0000 000000
2015-03-29 09:36:20,0.11,1.44,0.00,25.05,27.45,30.11,4.70,26.64,1009.26,2031.99,2883.38,2905.43,3141.97,349.67,342.58,11.75,0000 0000 0000 0000 000000
2015-03-29 09:41:21,0.10,1.44,0.00,24.93,27.45,30.05,4.71,26.59,1009.01,2031.99,2882.12,2904.60,3141.01,350.32,343.16,11.78,0000 0000 0000 0000 000000
2015-03-29 09:46:22,0.09,1.45,0.00,24.90,27.45,30.14,4.74,26.65,1008.85,2032.00,2881.03,2903.85,3140.07,350.41,343.33,11.81,0000 0000 0000 0000 000000
2015-03-29 09:51:23,0.11,1.45,0.00,24.97,27.44,30.15,4.66,26.72,1008.81,2032.00,2879.93,2902.92,3139.09,349.72,342.42,11.84,0000 0000 0000 0000 000000
2015-03-29 09:56:24,0.11,1.45,0.00,24.98,27.42,30.14,4.65,26.63,1008.81,2032.00,2878.77,2902.01,3138.08,349.53,342.41,11.87,0000 0000 0000 0000 000000
2015-03-29 10:01:25,0.11,1.46,0.00,24.96,27.42,30.08,4.70,26.60,1008.81,2032.00,2877.66,2901.13,3137.14,349.87,342.59,11.90,0000 0000 0000 0000 000000
2015-03-29 10:06:26,0.12,1.46,0.00,24.87,27.42,30.05,4.69,26.63,1008.81,2032.02,2876.45,2900.38,3136.31,350.12,343.04,11.93,0000 0000 0000 0000 000000
2015-03-29 10:11:28,0.11,1.46,0.00,24.88,27.40,30.11,4.68,26.66,1008.80,2032.02,2875.18,2899.50,3135.28,349.95,342.60,11.95,0000 0000 0000 0000 000000
2015-03-29 10:16:29,0.11,1.47,0.00,24.88,27.40,30.12,4.66,26.73,1008.80,2032.01,2873.90,2898.60,3134.49,349.88,342.71,11.98,0000 0000 0000 0000 000000
2015-03-29 10:21:30,0.10,1.47,0.00,24.91,27.40,30.06,4.67,26.63,1008.78,2032.02,2872.72,2897.80,3133.57,349.53,342.50,12.01,0000 0000 0000 0000 000000
2015-03-29 10:26:32,0.10,1.47,0.00,24.96,27.40,29.99,4.68,26.57,1008.74,2032.03,2871.48,2896.98,3132.70,350.22,342.94,12.04,0000 0000 0000 0000 000000
2015-03-29 10:31:33,0.10,1.48,0.00,24.96,27.39,30.01,4.68,26.60,1008.63,2032.03,2870.30,2896.09,3131.84,349.88,342.58,12.07,0000 0000 0000 0000 000000
2015-03-29 10:36:35,0.10,1.48,0.00,24.86,27.37,30.11,4.68,26.63,1008.36,2032.01,2869.12,2895.29,3130.85,349.93,342.92,12.10,0000 0000 0000 0000 000000
2015-03-29 10:41:36,0.12,1.48,0.00,24.91,27.37,30.10,4.65,26.60,1008.32,2032.01,2867.83,2894.38,3129.86,349.98,342.62,12.13,0000 0000 0000 0000 000000
2015-03-29 10:46:37,0.11,1.49,0.00,24.93,27.37,30.10,4.72,26.68,1008.32,2032.04,2866.63,2893.61,3128.98,350.38,343.00,12.16,0000 0000 0000 0000 000000
2015-03-29 10:51:38,0.09,1.49,0.00,24.83,27.37,30.01,4.67,26.72,1008.32,2032.03,2865.42,2892.76,3128.04,350.13,342.86,12.19,0000 0000 0000 0000 000000
2015-03-29 10:56:40,0.11,1.49,0.00,24.82,27.36,29.98,4.66,26.67,1008.32,2032.04,2864.11,2891.88,3127.06,349.73,342.53,12.22,0000 0000 0000 0000 000000
2015-03-29 11:01:41,0.11,1.50,0.00,24.76,27.35,30.03,4.64,26.69,1008.32,2032.04,2862.90,2891.03,3126.10,349.37,342.20,12.25,0000 0000 0000 0000 000000
2015-03-29 11:06:42,0.11,1.50,0.00,24.85,27.35,30.06,4.71,26.66,1008.32,2032.05,2861.81,2890.27,3125.29,350.15,342.86,12.28,0000 0000 0000 0000 000000
2015-03-29 11:11:44,0.12,1.50,0.00,24.82,27.35,30.10,4.72,26.68,1008.31,2032.04,2860.58,2889.30,3124.25,350.38,343.22,12.31,0000 0000 0000 0000 000000
2015-03-29 11:16:45,0.10,1.51,0.00,24.74,27.35,30.15,4.75,26.80,1008.30,2032.02,2859.44,2888.64,3123.38,350.57,343.22,12.34,0000 0000 0000 0000 000000
2015-03-29 11:21:46,0.09,1.51,0.00,24.77,27.35,30.13,4.76,26.78,1008.30,2032.04,2858.26,2887.82,3122.54,350.43,343.25,12.36,0000 0000 0000 0000 000000
2015-03-29 11:26:47,0.10,1.51,0.00,24.79,27.35,30.09,4.71,26.83,1008.30,2032.03,2857.00,2886.93,3121.51,350.56,343.33,12.39,0000 0000 0000 0000 000000
2015-03-29 11:31:49,0.11,1.52,0.00,24.85,27.35,30.15,4.70,26.73,1008.31,2032.04,2855.81,2886.04,3120.64,349.74,342.49,12.42,0000 0000 0000 0000 000000
2015-03-29 11:36:50,0.12,1.52,0.00,24.77,27.35,30.15,4.70,26.78,1008.31,2032.01,2854.57,2885.16,3119.76,349.78,342.29,12.45,0000 0000 0000 0000 000000
2015-03-29 11:41:51,0.11,1.52,0.00,24.75,27.35,30.17,4.71,26.63,1008.31,2032.02,2853.29,2884.26,3118.76,349.97,342.80,12.48,0000 0000 0000 0000 000000
2015-03-29 11:46:53,0.10,1.53,0.00,24.77,27.35,30.13,4.67,26.72,1008.34,2032.01,2852.06,2883.47,3117.80,349.66,342.54,12.51,0000 0000 0000 0000 000000
2015-03-29 11:51:54,0.11,1.53,0.00,24.84,27.35,30.16,4.71,26.64,1008.34,2032.02,2850.79,2882.68,3116.87,350.41,342.83,12.54,0000 0000 0000 0000 000000
2015-03-29 11:56:55,0.11,1.53,0.00,24.84,27.35,30.20,4.72,26.69,1008.33,2032.02,2849.52,2881.75,3115.90,350.03,342.61,12.57,0000 0000 0000 0000 000000
2015-03-29 12:01:56,0.09,1.54,0.00,24.87,27.36,30.18,4.69,26.59,1008.34,2032.02,2848.30,2880.98,3115.03,349.50,342.20,12.60,0000 0000 0000 0000 000000
2015-03-29 12:06:58,0.11,1.54,0.00,24.81,27.37,30.18,4.71,26.69,1008.32,2032.03,2847.22,2880.14,3114.17,350.35,343.09,12.63,0000 0000 0000 0000 000000
2015-03-29 12:11:59,0.11,1.54,0.00,24.78,27.37,30.18,4.70,26.60,1008.32,2032.02,2845.95,2879.32,3113.21,350.17,343.00,12.66,0000 0000 0000 0000 000000
2015-03-29 12:17:00,0.10,1.54,0.00,24.73,27.37,30.19,4.67,26.70,1008.32,2032.03,2844.77,2878.69,3112.35,349.80,342.56,12.69,0000 0000 0000 0000 000000
2015-03-29 12:22:01,0.09,1.55,0.00,24.81,27.37,30.17,4.68,26.79,1008.30,2032.01,2843.65,2877.91,3111.37,350.65,343.39,12.72,0000 0000 0000 0000 000000
2015-03-29 12:27:03,0.11,1.55,0.00,24.83,27.37,30.17,4.68,26.87,1008.25,2032.03,2842.50,2877.07,3110.50,349.54,342.40,12.75,0000 0000 0000 0000 000000
2015-03-29 12:32:04,0.11,1.56,0.00,24.75,27.37,30.20,4.64,26.71,1008.07,2032.02,2841.34,2876.22,3109.61,349.67,342.64,12.77,0000 0000 0000 0000 000000
2015-03-29 12:37:05,0.11,1.56,0.00,24.66,27.38,30.18,4.75,26.85,1008.07,2032.00,2840.09,2875.36,3108.59,350.51,343.37,12.80,0000 0000 0000 0000 000000
2015-03-29 12:42:07,0.12,1.56,0.00,24.69,27.39,30.19,4.68,26.98,1008.04,2032.00,2838.81,2874.47,3107.66,349.99,342.79,12.83,0000 0000 0000 0000 000000
2015-03-29 12:47:08,0.12,1.57,0.00,24.75,27.40,30.17,4.69,26.88,1007.98,2032.00,2837.46,2873.53,3106.68,350.20,342.90,12.86,0000 0000 0000 0000 000000
2015-03-29 12:52:09,0.13,1.57,0.00,24.72,27.40,30.20,4.71,26.78,1008.07,2032.00,2836.06,2872.50,3105.53,350.22,342.88,12.89,0000 0000 0000 0000 000000
2015-03-29 12:57:11,0.13,1.57,0.00,24.78,27.40,30.24,4.70,26.83,1007.95,2032.00,2834.64,2871.61,3104.56,349.85,342.52,12.92,0000 0000 0000 0000 000000
2015-03-29 13:02:12,0.10,1.58,0.00,24.69,27.40,30.23,4.69,26.91,1007.85,2032.00,2833.44,2870.76,3103.56,349.58,342.07,12.95,0000 0000 0000 0000 000000